Sleetmute, AK

6:18 PM AKST on December 17, 2017 (GMT -0900)
Sleetmute

Weather History for PASL - March, 2013

Change the Weather History Date:

Sunday, March 17, 2013

  Actual Average Record
Temperature  
Mean Temperature 14 °F -  
Max Temperature 28 °F 24 °F 46 °F (1998)
Min Temperature 0 °F 6 °F -31 °F (1999)
Degree Days  
Heating Degree Days 51    
Moisture  
Dew Point 6 °F    
Average Humidity 73    
Maximum Humidity 92    
Minimum Humidity 47    
Precipitation  
Precipitation 0.00 in - - ()
Sea Level Pressure  
Sea Level Pressure 30.30 in    
Wind  
Wind Speed 0 mph (SSE)    
Max Wind Speed 6 mph    
Max Gust Speed -    
Visibility 10 miles    
Events      
Averages and records for this station are not official NWS values.
T = Trace of Precipitation, MM = Missing Value Source: NWS Daily Summary

Daily Weather History Graph

Daily Weather History Graph

Search for Another Location

Airport or City:

Trip Planner

Search our weather history database for the weather conditions in past years. The results will help you decide how hot, cold, wet, or windy it might be!

Date:

Astronomy

Mar. 17, 2013 Rise Set
Actual Time 8:37 AM AKDT 8:37 PM AKDT
Civil Twilight 7:54 AM AKDT 9:20 PM AKDT
Nautical Twilight 7:01 AM AKDT 10:13 PM AKDT
Astronomical Twilight 6:04 AM AKDT 11:11 PM AKDT
Moon 10:18 AM AKDT (3/17) 3:33 AM AKDT (3/17)
Length of Visible Light 13h 26m
Length of Day
11h 59m
Waxing Crescent, 33% of the Moon is Illuminated
Mar 17
Waxing Crescent
Mar 19
First Quarter
Mar 27
Full
Apr 2
Last Quarter
Apr 10
New

Hourly Weather History & Observations

Time (AKDT) Temp. Windchill Dew Point Humidity Pressure Visibility Wind Dir Wind Speed Gust Speed Precip Events Conditions
1:16 AM 1.4 °F - -2.2 °F 85% 30.27 in 10.0 mi Calm Calm - N/A   Clear
1:36 AM 1.4 °F - -0.4 °F 92% 30.27 in 10.0 mi Calm Calm - N/A   Clear
1:56 AM 1.4 °F - -2.2 °F 85% 30.28 in 10.0 mi Calm Calm - N/A   Clear
2:16 AM -0.4 °F - -2.2 °F 92% 30.29 in 10.0 mi Calm Calm - N/A   Partly Cloudy
2:36 AM -0.4 °F - -4.0 °F 85% 30.29 in 10.0 mi Calm Calm - N/A   Mostly Cloudy
3:36 AM 1.4 °F - -0.4 °F 92% 30.31 in 10.0 mi Calm Calm - N/A   Overcast
3:56 AM 1.4 °F - -0.4 °F 92% 30.31 in 10.0 mi Calm Calm - N/A   Overcast
4:36 AM 3.2 °F - 1.4 °F 92% 30.32 in 9.0 mi Calm Calm - N/A   Overcast
5:16 AM 5.0 °F - 1.4 °F 85% 30.32 in 10.0 mi Calm Calm - N/A   Overcast
5:56 AM 6.8 °F - 3.2 °F 85% 30.33 in 10.0 mi Calm Calm - N/A   Overcast
6:16 AM 6.8 °F - 1.4 °F 79% 30.33 in 10.0 mi Calm Calm - N/A   Overcast
6:56 AM 6.8 °F - 3.2 °F 85% 30.34 in 10.0 mi Calm Calm - N/A   Overcast
7:36 AM 6.8 °F - 3.2 °F 85% 30.35 in 10.0 mi Calm Calm - N/A   Overcast
7:56 AM 6.8 °F - 3.2 °F 85% 30.35 in 10.0 mi Calm Calm - N/A   Overcast
8:16 AM 6.8 °F - 3.2 °F 85% 30.35 in 10.0 mi Calm Calm - N/A   Overcast
8:36 AM 6.8 °F - 3.2 °F 85% 30.35 in 10.0 mi Calm Calm - N/A   Overcast
8:56 AM 6.8 °F - 3.2 °F 85% 30.34 in 10.0 mi Calm Calm - N/A   Overcast
9:16 AM 6.8 °F - 3.2 °F 85% 30.35 in 10.0 mi Calm Calm - N/A   Overcast
9:36 AM 5.0 °F - 3.2 °F 92% 30.34 in 10.0 mi Calm Calm - N/A   Overcast
10:36 AM 8.6 °F - 5.0 °F 85% 30.35 in 10.0 mi Calm Calm - N/A   Clear
10:56 AM 10.4 °F - 6.8 °F 85% 30.35 in 10.0 mi Calm Calm - N/A   Clear
11:16 AM 14.0 °F - 8.6 °F 79% 30.34 in 10.0 mi Calm Calm - N/A   Clear
11:56 AM 17.6 °F - 10.4 °F 73% 30.34 in 10.0 mi Calm Calm - N/A   Clear
12:16 PM 17.6 °F - 8.6 °F 68% 30.34 in 10.0 mi Calm Calm - N/A   Clear
12:36 PM 19.4 °F - 8.6 °F 63% 30.34 in 10.0 mi Calm Calm - N/A   Clear
12:56 PM 19.4 °F - 8.6 °F 63% 30.34 in 10.0 mi Calm Calm - N/A   Clear
1:36 PM 21.2 °F - 10.4 °F 63% 30.34 in 10.0 mi Calm Calm - N/A   Clear
1:56 PM 21.2 °F - 10.4 °F 63% 30.34 in 10.0 mi Calm Calm - N/A   Clear
2:16 PM 23.0 °F - 10.4 °F 59% 30.33 in 10.0 mi Calm Calm - N/A   Clear
3:56 PM 26.6 °F 22.6 °F 12.2 °F 55% 30.30 in 10.0 mi SSE 3.5 mph - N/A   Clear
4:16 PM 28.4 °F 22.2 °F 12.2 °F 51% 30.29 in 10.0 mi SSE 5.8 mph - N/A   Clear
4:36 PM 28.4 °F 23.3 °F 12.2 °F 51% 30.28 in 10.0 mi SE 4.6 mph - N/A   Clear
4:56 PM 28.4 °F 23.3 °F 12.2 °F 51% 30.28 in 10.0 mi South 4.6 mph - N/A   Clear
5:16 PM 28.4 °F - 12.2 °F 51% 30.27 in 10.0 mi Calm Calm - N/A   Clear
6:36 PM 28.4 °F 24.6 °F 10.4 °F 47% 30.26 in 10.0 mi SSE 3.5 mph - N/A   Clear
7:16 PM 28.4 °F - 10.4 °F 47% 30.25 in 10.0 mi Calm Calm - N/A   Clear
7:36 PM 28.4 °F - 10.4 °F 47% 30.25 in 10.0 mi Calm Calm - N/A   Clear
8:16 PM 26.6 °F - 10.4 °F 51% 30.25 in 10.0 mi Calm Calm - N/A   Clear
8:36 PM 24.8 °F - 10.4 °F 54% 30.25 in 10.0 mi Calm Calm - N/A   Clear
8:56 PM 21.2 °F - 10.4 °F 63% 30.25 in 10.0 mi Calm Calm - N/A   Clear
9:16 PM 19.4 °F - 10.4 °F 68% 30.25 in 10.0 mi Calm Calm - N/A   Clear
9:36 PM 19.4 °F - 8.6 °F 63% 30.25 in 10.0 mi Calm Calm - N/A   Clear
9:56 PM 17.6 °F - 8.6 °F 68% 30.25 in 10.0 mi Calm Calm - N/A   Clear
10:16 PM 15.8 °F - 6.8 °F 68% 30.24 in 10.0 mi Calm Calm - N/A   Clear
10:36 PM 14.0 °F - 8.6 °F 79% 30.24 in 10.0 mi Calm Calm - N/A   Clear
11:16 PM 10.4 °F - 3.2 °F 73% 30.24 in 9.0 mi Calm Calm - N/A   Clear
11:36 PM 10.4 °F - 6.8 °F 85% 30.24 in 10.0 mi Calm Calm - N/A   Clear
11:56 PM 8.6 °F - 3.2 °F 79% 30.23 in 10.0 mi Calm Calm - N/A   Clear